Weather History for St. Louis, MO

Change the Weather History Date:

Sunday, June 8, 2014

  Actual Average Record
Temperature  
Mean Temperature 71 °F 74 °F  
Max Temperature 77 °F 83 °F 97 °F (2011)
Min Temperature 64 °F 65 °F 46 °F (1930)
Degree Days  
Heating Degree Days 0 0  
Month to date heating degree days 0 3  
Since 1 June heating degree days 0 3  
Since 1 July heating degree days 5027 4533  
Cooling Degree Days 6 9  
Month to date cooling degree days 89 65  
Year to date cooling degree days 351 239  
Since 1 June cooling degree days 89 65  
Growing Degree Days 20 (Base 50)    
Moisture  
Dew Point 60 °F    
Average Humidity 70    
Maximum Humidity 84    
Minimum Humidity 56    
Precipitation  
Precipitation 0.00 in 0.15 in 1.69 in (1891)
Month to date precipitation 1.53 1.24  
Year to date precipitation 18.59 17.61  
Snow  
Snow 0.00 in 0.00 in 0.00 in (2012)
Month to date snowfall 0.0 0.0  
Since 1 June snowfall 0.0 0.0  
Since 1 July snowfall 28.8 17.7  
Snow Depth 0.00 in    
Sea Level Pressure  
Sea Level Pressure 29.94 in    
Wind  
Wind Speed 7 mph (NNW)    
Max Wind Speed 20 mph    
Max Gust Speed 26 mph    
Visibility 10 miles    
Events      
T = Trace of Precipitation, MM = Missing Value Source: NWS Daily Summary

Daily Weather History Graph

Daily Weather History Graph

Search for Another Location

Airport:

Trip Planner

Search our weather history database for the weather conditions in past years. The results will help you decide how hot, cold, wet, or windy it might be!

Date:

Astronomy

Jun. 08, 2014 Rise Set
Actual Time 5:36 AM CDT 8:24 PM CDT
Civil Twilight 5:04 AM CDT 8:56 PM CDT
Nautical Twilight 4:25 AM CDT 9:36 PM CDT
Astronomical Twilight 3:39 AM CDT 10:21 PM CDT
Moon 3:45 PM CDT (6/8) 2:26 AM CDT (6/8)
Length of Visible Light 15h 51m
Length of Day
14h 48m
Waxing Gibbous, 77% of the Moon is Illuminated
Jun 8
Waxing Gibbous
Jun 12
Full
Jun 19
Last Quarter
Jun 27
New
Jul 5
First Quarter

Hourly Weather History & Observations

Time (CDT) Temp. Dew Point Humidity Pressure Visibility Wind Dir Wind Speed Gust Speed Precip Events Conditions
12:32 AM 66.2 °F 60.8 °F 83% 29.84 in 10.0 mi NW 16.1 mph 28.8 mph 0.00 in   Overcast
12:51 AM 66.9 °F 61.0 °F 81% 29.82 in 10.0 mi NW 13.8 mph 28.8 mph 0.00 in   Overcast
1:17 AM 66.2 °F 60.8 °F 83% 29.85 in 10.0 mi NW 17.3 mph 24.2 mph N/A   Overcast
1:51 AM 66.9 °F 60.1 °F 79% 29.84 in 10.0 mi NW 12.7 mph 21.9 mph N/A   Overcast
2:18 AM 66.2 °F 59.0 °F 78% 29.87 in 10.0 mi NNW 12.7 mph 23.0 mph N/A   Overcast
2:43 AM 66.2 °F 59.0 °F 78% 29.87 in 10.0 mi NNW 12.7 mph - N/A   Overcast
2:51 AM 66.9 °F 59.0 °F 76% 29.84 in 10.0 mi NNW 13.8 mph - N/A   Overcast
3:51 AM 66.0 °F 57.9 °F 75% 29.86 in 10.0 mi NNW 12.7 mph - N/A   Overcast
4:51 AM 66.0 °F 57.9 °F 75% 29.90 in 10.0 mi North 10.4 mph - N/A   Overcast
5:48 AM 64.4 °F 57.2 °F 77% 29.97 in 10.0 mi NNW 10.4 mph - N/A   Scattered Clouds
5:51 AM 64.0 °F 57.9 °F 80% 29.94 in 10.0 mi North 10.4 mph - N/A   Scattered Clouds
6:22 AM 64.4 °F 59.0 °F 83% 29.97 in 10.0 mi NNW 6.9 mph - N/A   Mostly Cloudy
6:51 AM 64.0 °F 59.0 °F 84% 29.95 in 10.0 mi NNW 6.9 mph - N/A   Mostly Cloudy
7:51 AM 66.0 °F 60.1 °F 81% 29.97 in 10.0 mi NNW 10.4 mph - N/A   Mostly Cloudy
8:45 AM 68.0 °F 60.8 °F 78% 30.01 in 10.0 mi NNW 9.2 mph - N/A   Overcast
8:51 AM 68.0 °F 60.1 °F 76% 29.99 in 10.0 mi North 10.4 mph - N/A   Overcast
9:21 AM 69.8 °F 60.8 °F 73% 30.00 in 10.0 mi North 8.1 mph - N/A   Overcast
9:51 AM 71.1 °F 61.0 °F 70% 29.99 in 10.0 mi North 8.1 mph - N/A   Overcast
10:51 AM 73.0 °F 59.0 °F 61% 30.00 in 10.0 mi North 6.9 mph - N/A   Overcast
11:51 AM 75.0 °F 60.1 °F 60% 30.01 in 10.0 mi West 4.6 mph - N/A   Overcast
12:51 PM 75.0 °F 59.0 °F 57% 30.01 in 10.0 mi Calm Calm - N/A   Overcast
1:51 PM 77.0 °F 60.1 °F 56% 30.00 in 10.0 mi NW 3.5 mph - N/A   Overcast
2:51 PM 77.0 °F 60.1 °F 56% 29.98 in 10.0 mi NW 5.8 mph - N/A   Overcast
3:51 PM 75.9 °F 60.1 °F 58% 29.96 in 10.0 mi North 6.9 mph - N/A   Overcast
4:51 PM 75.0 °F 61.0 °F 62% 29.96 in 10.0 mi North 4.6 mph - N/A   Overcast
5:51 PM 75.0 °F 61.0 °F 62% 29.95 in 10.0 mi NNW 4.6 mph - N/A   Overcast
6:51 PM 73.9 °F 62.1 °F 66% 29.95 in 10.0 mi North 4.6 mph - N/A   Overcast
7:51 PM 73.0 °F 63.0 °F 71% 29.94 in 10.0 mi NNW 4.6 mph - N/A   Overcast
8:51 PM 73.0 °F 62.1 °F 68% 29.96 in 10.0 mi Calm Calm - N/A   Overcast
9:51 PM 72.0 °F 61.0 °F 68% 29.96 in 10.0 mi ENE 4.6 mph - N/A   Overcast
11:51 PM 72.0 °F 62.1 °F 71% 29.95 in 10.0 mi NE 3.5 mph - N/A   Mostly Cloudy